Location: Newark
(25.0000°N, 73.5000°E)
Time: 03:13:55
(UTC+00:00)

Transit 2A Rocket - Pass Details

Date: 03 August 2021
Orbit: 586 x 917 km, 66.7° (Epoch: 24 September)

Event Time Altitude Azimuth Distance (km) Brightness Sun altitude
Rises 17:50:44 0° 342° (NNW) 3,383 9.1 -43.3°
Reaches altitude 10° 17:53:11 10° 346° (NNW) 2,488 8.2 -43.5°
Enters shadow 17:54:20 16° 349° (N) 2,081 7.7 -43.6°
